Regional Weather Roundup
Issued by NWS

Home | Current Version | Previous Version | Text Only | Print | Product List | Glossary On
Versions: 1 2 3 4 5 6 7 8 9 10 11 12 13 14 15 16 17 18 19 20 21 22 23 24 25 26 27 28 29 30 31 32 33 34 35 36 37 38 39 40 41 42 43 44 45 46 47 48 49 50
205
ASUS45 KPSR 300110
RWRAZ

ARIZONA HOURLY REGIONAL WEATHER ROUNDUP
NATIONAL WEATHER SERVICE PHOENIX AZ
600 PM MST SAT APR 29 2017

NOTE: FAIR INDICATES FEW OR NO CLOUDS BELOW 12,000 FEET WITH NO
SIGNIFICANT WEATHER AND/OR OBSTRUCTIONS TO VISIBILITY.

AZZ001>003-036-300200-
NORTHWEST ARIZONA

CITY           SKY/WX    TMP DP  RH WIND       PRES   REMARKS
BULLHEAD CITY  SUNNY     82  16   8 N15G25    29.94S
KINGMAN        SUNNY     69  16  13 N23G29    30.04S
$$

AZZ004>008-015-016-018-300200-
NORTH CENTRAL ARIZONA

CITY           SKY/WX    TMP DP  RH WIND       PRES   REMARKS
GRAND CANYON   PTSUNNY   54  11  18 NE6       30.08S
WILLIAMS       SUNNY     54  10  17 NW18G26   30.08R
PRESCOTT       MOSUNNY   62  10  13 N17G29    30.03R
FLAGSTAFF      MOSUNNY   50   7  17 NE9       30.08R
PAYSON         MOSUNNY   61  10  13 N12G20    30.03R
PAGE           CLOUDY    64  17  16 E5        30.00S
$$

AZZ009>014-017-300200-
NORTHEAST ARIZONA

CITY           SKY/WX    TMP DP  RH WIND       PRES   REMARKS
WINSLOW        MOSUNNY   60  13  15 N20G26    30.02R
SAINT JOHNS    PTSUNNY   44  32  62 E8        30.03R
WINDOW ROCK    PTSUNNY   47  26  44 N17       30.00S
SHOW LOW       MOSUNNY   46   9  21 NW21G29   30.04R
$$

AZZ540-542>544-546-548-300200-
GREATER PHOENIX AREA

CITY           SKY/WX    TMP DP  RH WIND       PRES   REMARKS
PHOENIX        MOSUNNY   80  21  11 W13       29.86S
BUCKEYE        SUNNY     79  19  11 W17       29.88S
GLENDALE       MOSUNNY   82  18   9 S5        29.87S
LUKE AFB       SUNNY     82  13   7 NW9       29.84S
DEER VALLEY    SUNNY     78  16   9 N9G28     29.86R
SCOTTSDALE     SUNNY     79  18  10 W8        29.88S
MESA-GATEWAY   MOSUNNY   75  21  13 W13G18    29.90S
CHANDLER       SUNNY     79  19  11 MISG      29.88S
$$

AZZ539-553-300200-
SOUTHWEST MARICOPA COUNTY AND PINAL COUNTY

CITY           SKY/WX    TMP DP  RH WIND       PRES   REMARKS
CASA GRANDE    SUNNY     76  21  12 SW9       29.92S
GILA BEND      MOSUNNY   80  17   9 W15       29.90S
$$

AZZ503-504-507>509-300200-
SOUTHEAST ARIZONA

CITY           SKY/WX    TMP DP  RH WIND       PRES   REMARKS
TUCSON         SUNNY     71  14  11 NW13      29.98R
DAVIS-MONTHAN  SUNNY     70  15  12 NW17G23   29.96R
NOGALES        SUNNY     66   5   9 NW16G22   29.99R
SIERRA VISTA   SUNNY     61   5  10 NW22      30.02R
DOUGLAS        SUNNY     64   5   9 NW21G30   29.97R
SAFFORD        MOSUNNY   65  17  15 NW21G26   29.93R
$$

AZZ532-300200-
SOUTHWEST ARIZONA

CITY           SKY/WX    TMP DP  RH WIND       PRES   REMARKS
YUMA           SUNNY     84  16   8 N12       29.92S
$$

CAZ041-043-047-048-061-525>527-560>570-300200-
SOUTHERN CALIFORNIA

CITY           SKY/WX    TMP DP  RH WIND       PRES   REMARKS
DOWNTOWN L.A.  SUNNY     76  35  22 W9        29.97S
L.A. AIRPORT   SUNNY     68  42  38 W21       29.98F
SAN DIEGO      SUNNY     76  34  21 NW16      29.99R
BURBANK        SUNNY     78  18  10 S10       29.98R
ONTARIO        SUNNY     83   7   5 E13G23    29.96S
RIVERSIDE      SUNNY     83  14   7 N10G17    29.96S
PALM SPRINGS   SUNNY     87   6   4 NE12      29.96F
EL CENTRO NAS  SUNNY     85   9   5 NW8       29.95S
IMPERIAL       SUNNY     84  21  10 NW8       29.93S
BLYTHE         SUNNY     84  13   7 N21G28    29.92F
NEEDLES        SUNNY     83  15   8 N16G23    29.95F
$$

NVZ020-UTZ003-300200-
SOUTHERN NEVADA-UTAH

CITY           SKY/WX    TMP DP  RH WIND       PRES   REMARKS
LAS VEGAS      SUNNY     77   6   6 N8G22     29.99S
SALT LAKE CITY PTSUNNY   56  23  27 NW9       30.17S
$$

NMZ009-TXZ055-300200-
NEW MEXICO-WEST TEXAS

CITY           SKY/WX    TMP DP  RH WIND       PRES   REMARKS
ALBUQUERQUE    CLOUDY    42  38  85 S17       29.98R
EL PASO        PTCLDY    56  28  34 N20       29.92R
$$


........................KEY........................
SKY/WX - SKY CONDITION/WEATHER
TMP    - TEMPERATURE IN FAHRENHEIT
DP     - DEW POINT IN FAHRENHEIT
RH     - RELATIVE HUMIDITY IN PERCENT
WIND   - DIRECTION AND SPEED IN MILES PER HOUR (MPH)
VRB    - VARIABLE WIND DIRECTION
PRES   - MEAN SEA LEVEL PRESSURE IN INCHES OF MERCURY
         F - FALLING PRESSURE   R - RISING PRESSURE
         S - STEADY PRESSURE
VSB    - VISIBILITY IN MILES
HX     - HEAT INDEX IN FAHRENHEIT
WCI    - WIND CHILL INDEX IN FAHRENHEIT
TC     - TEMPERATURE IN CELSIUS WHICH IS ALSO KNOWN AS
         TEMPERATURE IN CENTIGRADE
AFB    - AIR FORCE BASE
         LUKE AFB IS LUKE AIR FORCE BASE
         DAVIS-MONTHAN IS DAVIS-MONTHAN AIR FORCE BASE
NAS    - NAVAL AIR STATION
         EL CENTRO NAS IS EL CENTRO NAVAL AIR STATION
N/A    - NOT AVAILABLE





USA.gov is the U.S. government's official web portal to all federal, state and local government web resources and services.